Location: Heisede
(52.2582°N, 9.8523°E)
Time: 23:50:00
(UTC+00:00)

Cosmos 44 Rocket - Pass Details

Date: 13 January 2026
Orbit: 633 x 744 km, 65.1° (Epoch: 9 February)

Event Time Altitude Azimuth Distance (km) Brightness Sun altitude
Exits shadow 04:54:49 29° 341° (NNW) 1,311 4.4 -22.0°
Drops below altitude 10° 04:58:59 10° 35° (NE) 2,238 6.2 -21.4°
Sets 05:01:42 0° 46° (NE) 3,175 7.2 -21.0°
